Location: Crab Orchard
(37.7292°N, 88.8042°W)
Time: 17:46:38
(UTC+00:00)

Cosmos 332 Rocket - Pass Details

Date: 08 December 2019
Orbit: 683 x 703 km, 74.0° (Epoch: 23 January)

Event Time Altitude Azimuth Distance (km) Brightness Sun altitude
Rises 22:56:19 0° 338° (NNW) 3,078 7.1 -4.4°
Reaches altitude 10° 22:58:39 10° 335° (NNW) 2,153 6.4 -4.8°
Maximum altitude 23:03:26 62° 255° (WSW) 775 4.4 -5.6°
Drops below altitude 10° 23:08:10 10° 175° (S) 2,126 6.6 -6.5°
Sets 23:10:28 0° 172° (S) 3,035 7.3 -6.9°
